ARIANE 1 DEB

基本信息
目录编号:
26683
目录名称:
ARIANE 1 DEB
国际标识:
1985-056H
轨道中心:
EARTH
物体状态:
在轨
发射日期:
1985-07-02 UTC
轨道信息
数据来源: 国际轨道数据
星历时间: 2026-05-25T08:32:41+0800
半长轴: 24766.7km
偏心率: 0.7091181
轨道倾角: 6.237°
近地点辐角: 207.431°
升交点赤经: 358.973°
平近点角: 354.774°
近地点: 826.047km
远地点: 35951.079km
周期: 646.490分钟
每日圈数: 2.227412
详细信息
发射场:
FRGUI
轨道高度:
LEO
数据来源:
AOE Integration Group
参考系:
TEME
时间系统:
UTC
历元类型:
SGP4
2D轨道图
3D轨道图
轨道高度分析图
轨道倾角分析图
轨道综合分析图
查看轨道综合分析图